ASTRA 2G

Last updated on Mon Oct 14 2024 00:02:39 GMT+0000 (Coordinated Universal Time)

1 40364U 14089A 24287.48370262 .00000148 00000+0 00000+0 0 9995 2 40364 0.0230 8.9989 0001818 87.5952 128.2586 1.00269014 35835
UTC large
Height (km)
Speed (km/s)
/
Latitude / Longitude
Inclination (degrees)
Orbital Period (minutes)
Azimuth
Elevation
Range (km)
Doppler Factor

Next 0 passes for location: London (51.5072 / 0.1276)

Sorry there are no passes over London.